This is the latest recevied weather packets stored in our database for station/object SA7BGG-5. If no packets are shown the sender has not sent any weather packets the latest 10 day(s).
| Time | Temp. | Humidity | Pressure | Rain* | Wind** | Luminosity | Snow |
|---|---|---|---|---|---|---|---|
| 1777700702 | 8.89° C | 88% | 1025 hPa | - | - | - | - |
| 1777700402 | 8.89° C | 88% | 1025 hPa | - | - | - | - |
| 1777700102 | 8.33° C | 87% | 1025 hPa | - | - | - | - |
| 1777699801 | 8.33° C | 87% | 1025 hPa | - | - | - | - |
| 1777699501 | 7.22° C | 85% | 1025 hPa | - | - | - | - |
| 1777699201 | 7.22° C | 85% | 1025 hPa | - | - | - | - |
| 1777698900 | 6.67° C | 80% | 1025 hPa | - | - | - | - |
| 1777698600 | 6.67° C | 80% | 1025 hPa | - | - | - | - |
| 1777698305 | 6.67° C | 78% | 1025 hPa | - | - | - | - |
| 1777698005 | 6.67° C | 78% | 1025 hPa | - | - | - | - |
| 1777697704 | 6.11° C | 75% | 1025 hPa | - | - | - | - |
| 1777697404 | 6.11° C | 75% | 1025 hPa | - | - | - | - |
| 1777697104 | 6.11° C | 76% | 1025 hPa | - | - | - | - |
| 1777696803 | 6.11° C | 76% | 1025 hPa | - | - | - | - |
| 1777696503 | 5.56° C | 78% | 1025 hPa | - | - | - | - |
| 1777696203 | 5.56° C | 78% | 1025 hPa | - | - | - | - |
| 1777695902 | 5° C | 80% | 1025 hPa | - | - | - | - |
| 1777695602 | 5° C | 80% | 1025 hPa | - | - | - | - |
| 1777695301 | 3.89° C | 80% | 1025 hPa | - | - | - | - |
| 1777695001 | 3.89° C | 80% | 1025 hPa | - | - | - | - |
| 1777694700 | 3.33° C | 79% | 1025 hPa | - | - | - | - |
| 1777694400 | 3.33° C | 79% | 1025 hPa | - | - | - | - |
| 1777694105 | 3.33° C | 78% | 1025 hPa | - | - | - | - |
| 1777693804 | 3.33° C | 78% | 1025 hPa | - | - | - | - |
| 1777693504 | 3.89° C | 77% | 1026 hPa | - | - | - | - |
* Rain since midnight (hover to see other rain measurements)
** Current wind speed in m/s (hover to see current wind gust speed)